cover

 

Get it on iTunes

Space Rockerz

#Trackname / Key / BPM / Publish dateArtists, Remixers / Label
1 136 bpm, 8A / A minor, 2017-09-22, Trance,  0  40
2 134 bpm, 4A / F minor, 2017-09-15, House,  0  21
3 128 bpm, 1B / B major, 2017-06-30, Trance,  0  30
4 128 bpm, 7B / F major, 2017-04-28 (2008-12-03), Progressive House,  0  10
5 128 bpm, 7B / F major, 2017-04-28 (2011-03-18), Progressive House,  0  6
6 128 bpm, 7B / F major, 2017-04-28 (2009-09-22), Progressive House,  0  2
7 134 bpm, 8A / A minor, 2017-04-28 (2011-04-12), Progressive House,  0  4
8 128 bpm, 1A / Ab minor, 2017-04-28, Trance,  0  25
9 132 bpm, 4A / F minor, 2017-01-27, Trance,  0  20
10 130 bpm, 12A / Db minor, 2016-12-09, Trance,  0  100
11 128 bpm, 1B / B major, 2016-12-09, Trance,  0  100
12 128 bpm, 5A / C minor, 2016-03-18, Trance,  0  25
13 128 bpm, 5A / C minor, 2016-01-22, Trance,  0  25
14 128 bpm, 5A / C minor, 2015-12-04, Trance,  0  28
15 128 bpm, 5A / C minor, 2015-11-02, Trance,  2  1
16 136 bpm, 8A / A minor, 2015-02-23, Trance,  0  50
17 136 bpm, 8A / A minor, 2014-10-20, Trance,  2  25
18 132 bpm, 8A / A minor, 2014-10-06, Trance,  0  20
19 136 bpm, 8A / A minor, 2014-09-01, Trance,  1  20
20 132 bpm, 4B / Ab major, 2014-08-25, Trance,  0  12
21 136 bpm, 8A / A minor, 2014-08-18, Trance,  0  20
22 136 bpm, 8A / A minor, 2014-07-14, Trance,  0  30
23 132 bpm, 8B / C major, 2014-06-09, Progressive House,  0  1
24 136 bpm, 8A / A minor, 2014-06-02, Trance,  0  20
25 136 bpm, 8A / A minor, 2014-05-19, Trance,  0  25
26 132 bpm, 8A / A minor, 2014-05-05, Trance,  0  25
27 132 bpm, 4B / Ab major, 2014-04-28, Trance,  0  25
28 128 bpm, 12A / Db minor, 2014-04-21, Electronica,  0  13
29 132 bpm, 6A / G minor, 2014-04-14, Trance,  0  5
30 132 bpm, 1A / Ab minor, 2014-04-07, Trance,  0  25
31 132 bpm, 8A / A minor, 2014-03-31, Trance,  0  20
32 132 bpm, 4B / Ab major, 2014-03-31, Trance,  0  20
33 136 bpm, 8A / A minor, 2014-03-24, Trance,  0  25
34 132 bpm, 4B / Ab major, 2014-03-24, Trance,  0  25
35 132 bpm, 4B / Ab major, 2014-03-17, Trance,  0  25
36 136 bpm, 8A / A minor, 2014-03-17, Trance,  0  25
37 132 bpm, 6A / G minor, 2014-03-14, Trance,  0  32
38 132 bpm, 8B / C major, 2014-03-10, Trance,  0  20
39 136 bpm, 8A / A minor, 2014-03-03, Trance,  0  17
40 136 bpm, 8A / A minor, 2014-03-03, Trance,  0  10
41 132 bpm, 8A / A minor, 2014-02-24, Trance,  0  25
42 132 bpm, 8B / C major, 2014-02-17, Trance,  0  25
43 132 bpm, 4B / Ab major, 2014-02-17, Trance,  2  3
44 136 bpm, 8A / A minor, 2014-02-10, Trance,  0  20
45 132 bpm, 8A / A minor, 2014-02-03, Trance,  0  10
46 132 bpm, 8A / A minor, 2014-01-27, Trance,  0  4
47 132 bpm, 8B / C major, 2014-01-27, Trance,  2  4
48 136 bpm, 8A / A minor, 2014-01-27, Trance,  8  4
49 136 bpm, 8A / A minor, 2014-01-27, Trance,  1  4
50 132 bpm, 8A / A minor, 2013-11-11, Trance,  0  20
51 128 bpm, 1B / B major, 2013-11-04, Trance,  0  20
52 130 bpm, 4A / F minor, 2013-11-01, Trance,  0  100
53 128 bpm, 1A / Ab minor, 2013-10-28, Trance,  0  20
54 132 bpm, 8A / A minor, 2013-09-23, Trance,  1  20
55 148 bpm, 1A / Ab minor, 2013-07-22, DJ Tools,  0  12
56 132 bpm, 8A / A minor, 2013-07-01, Trance,  0  10
57 132 bpm, 8A / A minor, 2013-06-24, Trance,  0  20
58 132 bpm, 8A / A minor, 2013-06-10, Trance,  0  20
59 130 bpm, 12A / Db minor, 2013-05-27, Trance,  0  22
60 130 bpm, 12A / Db minor, 2013-05-20, Trance,  0  20
61 133 bpm, 12B / E major, 2013-05-13, Trance,  0  20
62 134 bpm, 2A / Eb minor, 2013-04-29, Trance,  0  20
63 132 bpm, 8A / A minor, 2013-04-22, Trance,  5  1
64 128 bpm, 1A / Ab minor, 2013-04-01, Trance,  1  24
65 128 bpm, 1A / Ab minor, 2013-04-01, Trance,  0  24
66 132 bpm, 1A / Ab minor, 2013-04-01, Trance,  0  24
67 132 bpm, 1A / Ab minor, 2013-04-01, Trance,  0  24
68 128 bpm, 1A / Ab minor, 2013-04-01, Trance,  0  24
69 130 bpm, 12A / Db minor, 2013-04-01, Trance,  0  24
70 133 bpm, 12B / E major, 2013-04-01, Trance,  0  24
71 130 bpm, 12A / Db minor, 2013-04-01, Trance,  1  24
72 128 bpm, 12A / Db minor, 2013-03-25, Electronica,  0  20
73 130 bpm, 12A / Db minor, 2013-03-25, Trance,  0  16
74 132 bpm, 1A / Ab minor, 2013-03-18, Trance,  0  20
75 128 bpm, 1B / B major, 2013-03-11, Trance,  0  20
76 132 bpm, 9A / E minor, 2013-02-22, Trance,  0  11
77 130 bpm, 12A / Db minor, 2013-02-18, Trance,  0  15
78 132 bpm, 1A / Ab minor, 2013-02-18, Trance,  0  10
79 128 bpm, 6A / G minor, 2013-02-18, Trance,  0  20
80 132 bpm, 9A / E minor, 2013-02-01, Trance,  0  104
81 130 bpm, 12A / Db minor, 2013-01-21, Trance,  0  20
82 0 bpm, 4A / F minor, 2013-01-18, Trance,  0  31
83 128 bpm, 1A / Ab minor, 2012-12-10, Trance,  0  10
84 140 bpm, 4A / F minor, 2012-12-07, Trance,  0  10
85 130 bpm, 12A / Db minor, 2012-12-03, Trance,  0  22
86 132 bpm, 9A / E minor, 2012-11-23, Trance,  0  10
87 128 bpm, 1B / B major, 2012-11-12, Trance,  0  15
88 132 bpm, 1A / Ab minor, 2012-11-12, Trance,  0  15
89 130 bpm, 12A / Db minor, 2012-11-12, Trance,  1  15
90 128 bpm, 4B / Ab major, 2012-11-12, Trance,  0  15
91 140 bpm, 4A / F minor, 2012-11-09, Trance,  0  78
92 130 bpm, 12A / Db minor, 2012-11-05, Trance,  0  21
93 132 bpm, 1A / Ab minor, 2012-11-05, Trance,  0  20
94 130 bpm, 12A / Db minor, 2012-10-29, Trance,  1  12
95 128 bpm, 1B / B major, 2012-10-22, Trance,  0  15
96 132 bpm, 9A / E minor, 2012-10-19, Trance,  0  36
97 246 bpm, 12A / Db minor, 2012-10-15, DJ Tools,  1  4
98 130 bpm, 8A / A minor, 2012-10-12, Trance,  0  50
99 134 bpm, 9A / E minor, 2012-10-12, Trance,  0  50
100 130 bpm, 12A / Db minor, 2012-10-08, Trance,  0  21
Please wait...